Temp
20 20 19 19 19 19 19 19 19 19 19 18 18 17 17 16 16 16 16 16 15 15 15 15 15 15 15 15 16 15 15 15 14 14 14 14 14 14 14 14 15 15
20 20 19 19 19 19 19 19 19 19 19 19 18 18 17 17 16 16 16 16 15 15 15 15 15 15 15 15 15 15 15 14 14 14 14 14 14 14 14 14 14 15
20 20 19 19 20 20 19 19 19 19 19 19 19 18 17 17 16 16 16 16 15 15 15 15 15 15 15 15 15 15 15 15 14 14 14 14 14 14 14 14 14 14
20 20 20 20 20 20 19 19 19 19 19 19 19 18 18 17 16 16 16 16 16 15 15 15 15 15 15 15 15 15 15 15 14 14 14 14 14 14 14 14 14 14
19 20 20 20 20 20 20 19 19 19 19 19 19 18 18 17 16 16 16 16 16 15 15 15 15 15 15 15 15 15 15 15 14 14 14 14 14 14 14 14 13 14
19 19 19 19 19 19 19 19 19 19 19 19 18 18 18 17 16 16 16 16 16 16 15 15 15 15 15 15 15 15 15 15 14 14 14 14 14 14 14 14 14 14
19 19 19 19 19 19 18 18 18 18 18 19 18 18 18 17 17 16 16 16 16 16 16 15 15 15 15 15 15 15 15 15 14 14 15 14 14 14 14 14 14 14
19 19 19 19 19 18 18 18 17 18 18 18 18 18 18 18 17 17 17 16 16 16 16 16 15 15 15 15 15 15 15 15 14 14 15 15 14 14 14 14 14 14
18 18 18 18 18 18 17 17 17 17 17 17 18 18 18 18 18 17 17 17 17 16 16 16 16 15 15 15 15 15 15 15 14 14 15 15 14 14 14 13 13 13
17 18 18 18 18 17 17 17 17 17 17 17 17 17 17 17 17 17 17 17 17 17 17 17 16 16 16 15 15 15 15 15 14 14 15 15 14 14 14 14 13 13
17 17 17 17 17 17 17 16 16 16 16 16 17 17 17 17 17 17 17 17 17 17 17 17 17 16 16 15 15 15 15 15 14 14 14 14 14 14 14 14 13 13
16 16 16 16 16 16 16 16 16 16 16 16 16 16 16 16 17 17 17 17 17 17 17 17 17 17 17 16 16 15 15 15 14 14 14 14 14 14 14 14 13 13
16 16 16 16 16 16 16 16 16 16 16 16 16 16 16 16 16 16 17 17 17 17 17 17 17 17 17 16 16 16 15 15 15 14 14 14 14 14 14 13 13 13
16 16 16 16 16 16 16 16 16 16 16 15 15 15 16 15 15 16 16 16 16 16 16 16 16 16 16 15 16 16 16 15 15 14 14 14 14 13 13 13 13 12
17 17 17 16 17 17 16 16 16 16 15 15 15 15 15 15 15 15 16 16 16 15 15 16 16 16 15 15 14 15 16 15 14 14 14 14 13 13 13 13 12 12
17 17 17 17 17 17 17 17 17 16 16 16 16 16 16 16 15 16 16 15 15 15 15 15 16 16 16 15 14 15 15 15 14 14 14 13 13 13 13 12 12 12
17 17 17 17 17 17 17 17 17 17 17 17 17 16 16 16 16 16 16 15 15 15 15 15 16 16 16 15 14 15 15 15 14 14 13 13 13 12 12 12 11 11
17 17 17 17 17 17 17 17 17 17 17 17 17 17 17 17 16 16 16 16 15 15 15 15 15 15 15 15 15 15 15 15 14 13 13 13 12 12 12 12 11 11
17 17 17 17 17 17 17 17 17 17 17 17 17 17 17 17 17 16 16 16 16 16 15 15 15 15 15 15 14 15 15 14 13 13 13 13 12 12 12 12 12 11
17 17 17 17 17 16 16 16 16 16 17 16 17 17 17 17 16 16 16 16 16 16 15 15 15 14 15 15 14 14 14 13 13 13 12 12 12 12 12 12 11 11
17 16 16 16 16 16 16 16 16 16 16 16 16 16 16 16 16 16 16 16 16 16 15 15 15 14 14 14 14 14 14 13 12 12 12 12 12 12 11 11 11 10
17 16 16 16 16 16 16 16 16 16 16 16 16 16 16 16 16 16 16 16 16 16 15 15 14 14 14 14 13 13 13 12 12 12 12 11 11 11 11 10 10 10
16 16 16 16 16 15 16 16 16 16 16 16 16 16 16 16 16 16 16 16 16 16 15 14 13 13 13 13 13 13 12 12 11 11 11 10 10 10 10 10 10 10
16 16 16 16 15 15 15 15 15 15 15 15 15 15 16 16 15 16 16 16 16 15 15 14 13 12 12 12 12 12 11 11 10 10 10 10 10 10 10 10 10 10
16 15 15 15 15 15 15 15 15 15 15 15 15 15 15 15 15 15 15 15 15 14 14 13 12 11 10 11 11 11 10 10 9 9 10 10 10 10 10 10 10 10
15 15 15 15 15 15 15 14 14 14 14 15 15 15 15 15 15 15 14 13 12 13 12 12 11 10 9 10 10 10 9 9 9 9 10 10 10 10 10 9 9 9
Height
787 788 790 792 794 796 798 799 801 802 804 804 805 807 807 808 809 810 812 812 813 813 813 814 814 814 815 815 816 816 816 817 817 818 818 818 819 819 820 820 820 821
786 788 790 792 794 796 798 799 801 802 804 805 805 806 807 808 809 811 812 812 813 814 814 814 815 815 816 816 816 817 817 817 818 818 819 819 820 820 821 821 821 822
786 788 790 792 794 795 797 799 801 802 804 805 805 806 807 808 810 811 812 812 813 814 814 815 815 815 816 816 817 817 817 818 818 819 819 820 820 821 821 822 822 822
786 788 789 792 794 795 797 799 801 802 804 805 806 807 807 808 810 811 811 812 813 813 814 814 815 815 816 816 817 817 817 818 818 819 819 820 820 821 821 822 822 823
786 788 790 792 793 795 797 799 801 803 804 805 806 807 807 808 809 810 811 812 812 812 813 813 814 815 815 816 816 817 817 818 818 819 819 820 820 821 821 822 822 823
786 788 790 792 793 795 797 799 802 804 805 806 806 807 807 807 808 809 810 811 811 812 812 813 813 814 815 815 816 816 817 817 817 818 819 819 819 820 820 821 822 822
786 788 790 792 793 795 796 799 801 804 806 806 806 807 807 807 808 809 809 810 810 811 811 812 812 813 814 814 814 815 815 816 816 817 818 818 819 819 820 820 821 822
785 787 789 791 793 795 796 798 800 803 806 807 807 807 806 806 807 808 809 810 810 810 811 811 811 812 812 813 813 814 814 815 815 816 817 817 818 818 819 820 820 821
784 786 787 789 792 795 795 797 799 801 804 806 807 807 806 806 806 806 808 809 810 810 810 810 810 811 811 812 812 813 813 813 814 814 816 816 816 817 818 819 819 820
785 786 787 787 790 792 793 795 797 798 801 804 806 806 806 806 805 805 805 806 808 809 809 810 810 810 810 811 812 812 812 813 813 814 815 815 815 816 817 817 818 819
785 786 788 788 788 789 790 792 794 795 799 802 803 804 804 805 804 803 802 803 804 806 807 808 808 809 809 810 811 812 813 813 813 813 814 814 814 815 816 816 817 818
784 786 788 789 788 788 788 790 791 793 795 798 799 799 801 803 802 800 800 801 802 804 805 806 807 807 807 808 810 812 812 813 813 814 814 814 814 814 815 815 816 817
784 786 787 788 788 787 788 789 791 792 793 794 796 796 797 799 799 799 799 800 801 803 804 805 806 807 807 807 808 809 811 811 812 813 813 813 813 813 814 814 815 816
785 786 786 787 787 786 787 788 790 791 792 792 794 794 795 796 796 796 797 798 800 802 803 803 804 805 806 807 808 808 808 809 810 811 811 812 812 812 813 813 814 815
785 785 785 786 786 786 787 787 788 790 790 791 792 793 793 794 794 794 794 795 796 799 802 802 800 800 801 804 807 808 807 807 808 809 810 811 812 812 813 813 813 814
784 784 784 785 785 786 786 787 788 788 789 790 790 791 791 791 792 792 793 793 794 796 799 799 798 798 797 799 803 805 805 805 806 808 809 810 811 811 812 812 812 813
783 783 784 784 785 785 786 786 787 788 788 788 788 788 789 789 789 790 790 791 792 793 795 796 795 795 795 797 799 802 803 802 803 805 808 809 810 810 811 811 812 812
782 783 783 784 784 785 786 786 786 787 787 787 787 787 787 787 787 788 788 790 790 791 791 792 792 792 793 795 797 799 800 799 801 803 805 807 808 809 810 810 810 811
782 783 783 784 784 785 785 785 786 786 786 786 786 786 786 786 786 786 787 788 788 788 788 788 788 789 790 792 794 797 798 798 799 801 803 805 807 807 809 809 809 810
782 782 783 783 783 784 784 784 785 784 784 784 784 785 785 785 785 785 785 786 786 786 786 786 786 787 788 790 792 794 795 796 798 800 801 804 805 806 807 808 808 809
781 781 782 782 783 783 783 783 784 783 783 783 783 783 784 784 784 784 784 784 784 784 785 784 784 785 787 788 789 791 793 794 796 799 800 803 804 805 805 806 807 808
779 780 781 781 782 782 782 783 783 782 782 782 782 782 783 782 783 782 782 782 782 782 782 782 783 784 785 786 788 789 791 792 794 797 800 801 802 803 804 805 806 807
778 779 780 780 781 781 781 781 781 781 781 781 781 781 781 781 781 780 780 780 780 780 780 780 781 783 784 786 787 788 790 791 792 795 798 800 802 803 804 805 806 806
777 778 778 779 779 779 780 780 780 780 780 780 780 779 779 779 779 778 778 778 777 777 777 778 780 782 783 786 787 788 790 791 792 795 798 800 801 802 803 804 805 805
776 776 777 777 778 778 778 778 779 779 779 778 778 778 777 777 777 777 776 775 775 775 776 777 779 781 783 786 787 788 790 791 793 795 797 799 800 802 802 803 804 804
775 775 775 775 776 776 777 777 777 777 777 777 776 776 776 775 775 774 774 773 774 774 775 777 779 781 783 785 787 788 790 792 794 795 797 798 799 800 801 802 802 802
Wind_Speed
18 18 18 16 15 15 14 13 12 11 10 10 10 10 10 9 8 8 7 6 6 5 5 5 5 6 6 7 8 8 8 8 8 8 8 8 9 9 9 8 8 8
19 18 18 16 14 14 15 12 11 12 10 8 10 10 10 10 9 9 8 7 7 6 6 5 5 6 5 5 7 7 7 8 7 7 8 7 7 7 8 7 8 9
19 19 18 17 14 13 15 13 10 11 10 8 8 10 11 11 9 9 9 8 8 7 6 6 5 6 5 5 6 6 6 7 6 6 6 6 6 6 6 5 6 7
19 18 17 17 15 12 14 15 10 10 10 9 8 8 10 11 9 10 10 9 9 9 8 7 7 6 6 6 6 6 6 6 6 6 6 6 6 5 5 5 4 5
17 16 14 14 13 11 12 14 12 9 10 10 9 8 10 11 10 11 11 11 11 10 10 9 9 9 8 7 7 7 7 6 6 6 6 5 5 5 4 4 4 4
16 15 13 11 10 8 7 9 9 8 8 8 10 9 9 10 11 12 13 13 12 12 12 12 11 11 11 9 9 8 8 8 7 7 7 6 5 5 5 4 3 3
13 12 11 10 10 9 7 6 7 6 7 7 9 11 11 11 11 12 14 14 14 14 14 14 13 13 13 12 11 11 10 10 9 9 9 8 7 6 6 5 4 3
11 10 9 9 10 10 9 9 8 6 8 9 9 11 12 13 13 13 14 15 15 16 16 16 15 16 16 14 14 14 13 12 12 12 11 11 10 9 7 7 6 4
11 11 11 11 12 11 9 9 10 9 8 10 12 11 10 12 13 14 16 16 17 17 17 17 17 17 17 17 16 16 15 15 15 13 13 13 12 10 10 9 8 6
10 10 12 13 15 14 12 12 14 14 12 12 12 13 13 12 13 14 15 17 19 19 18 18 18 18 18 18 18 17 17 17 16 15 14 14 13 11 11 10 9 8
8 8 10 11 14 15 14 14 15 15 15 15 15 14 14 14 16 18 18 19 20 21 21 20 19 19 18 18 17 17 17 17 16 16 15 15 14 12 12 11 10 9
4 4 4 6 8 10 12 14 16 17 18 20 19 17 15 17 22 23 22 20 20 20 22 22 21 20 19 19 17 16 17 17 15 15 16 15 14 13 13 12 11 9
3 2 3 3 4 4 6 10 12 15 18 21 22 21 20 23 26 25 22 22 22 22 22 22 21 20 18 19 19 18 18 18 17 16 16 16 15 14 13 12 12 10
5 4 4 3 3 4 5 7 10 12 14 17 20 22 24 26 26 25 23 21 21 22 22 21 21 21 19 17 17 18 20 20 19 18 17 16 15 14 13 12 12 11
5 4 4 3 3 4 5 7 9 11 12 15 18 21 24 25 25 24 23 20 19 22 24 23 23 23 21 19 19 20 22 21 20 19 18 16 15 14 13 12 12 10
2 2 1 2 2 2 3 4 6 9 12 14 16 19 20 21 22 22 22 21 21 23 25 27 26 24 23 23 23 24 24 22 20 19 17 16 15 14 13 12 11 10
1 1 1 1 2 2 2 3 4 5 7 9 11 13 14 15 17 18 19 20 21 23 25 27 27 26 25 24 24 25 26 23 20 19 17 16 15 14 13 13 12 11
1 0 2 2 2 2 3 4 4 4 6 7 8 9 10 11 13 15 16 17 18 19 21 23 25 25 25 23 21 23 26 24 20 18 17 16 15 14 13 13 12 12
0 2 3 2 2 3 4 4 5 6 7 7 8 9 9 10 11 13 14 16 16 16 17 18 21 23 24 23 21 22 25 23 19 17 17 16 14 13 13 12 11 12
2 2 3 3 3 4 5 6 7 8 8 8 8 9 10 11 12 13 14 15 16 16 15 16 18 19 21 23 24 24 26 23 18 16 16 15 13 13 13 12 10 10
3 3 3 3 4 5 6 7 7 8 9 9 9 10 12 13 13 14 15 16 16 16 16 16 16 16 18 22 25 26 27 23 16 14 15 14 12 13 13 12 10 9
4 3 3 4 5 6 6 7 8 8 9 9 10 11 12 13 14 14 15 15 15 15 15 15 14 14 17 21 24 26 26 22 17 14 15 14 11 11 11 10 9 9
5 5 5 6 6 7 7 8 8 8 9 10 11 12 13 13 14 15 15 15 14 13 14 14 13 15 18 20 23 25 25 21 18 16 15 12 10 9 9 9 9 10
5 6 7 7 7 8 9 9 9 10 11 11 12 14 14 14 14 14 15 14 12 10 11 13 14 16 19 21 23 24 22 18 15 14 12 9 8 7 8 9 10 11
7 7 8 9 9 10 10 10 10 11 12 13 14 15 15 14 14 14 13 10 9 8 9 12 14 17 20 21 22 22 19 15 11 10 9 8 8 8 8 8 8 9
9 9 10 11 11 11 11 11 11 12 13 14 14 14 15 15 13 10 6 4 4 6 8 9 12 17 20 21 20 19 17 14 10 8 7 7 6 6 5 5 5 8
Wind_Direction
175 172 173 174 172 174 174 176 178 179 181 176 171 169 168 175 168 152 149 143 141 138 126 123 116 107 105 100 97 101 103 99 93 90 88 81 77 80 77 77 82 73
178 175 177 179 179 178 179 184 183 180 186 185 176 174 175 182 175 162 166 162 155 155 147 146 135 121 121 116 112 112 110 108 103 95 93 85 79 81 76 80 90 80
179 177 177 181 184 183 181 185 187 181 185 190 182 176 178 188 184 171 178 173 169 174 166 163 160 146 152 150 134 129 124 121 116 112 110 103 95 89 82 79 78 77
180 180 179 181 186 188 181 183 189 184 187 194 189 180 182 192 189 181 189 185 181 190 184 178 178 168 171 168 153 151 146 138 139 133 122 115 114 108 101 90 71 72
182 182 181 180 181 184 175 175 185 190 194 197 194 190 189 196 198 193 198 196 193 199 196 191 188 183 184 179 172 174 165 161 167 150 136 140 139 128 119 107 88 81
183 184 185 182 179 180 165 166 183 195 202 201 200 202 199 199 202 202 206 206 203 205 204 200 197 192 193 189 186 189 182 180 182 166 161 168 157 146 145 134 117 107
180 181 186 182 177 181 178 180 190 204 229 229 210 209 212 210 209 210 215 214 210 211 210 207 204 201 199 194 193 194 191 192 189 179 179 182 175 173 169 164 159 151
165 174 185 186 182 184 188 197 203 213 244 254 239 224 216 215 220 223 225 224 221 218 216 213 209 207 205 200 198 198 195 195 192 186 189 188 183 184 182 179 179 170
165 175 183 187 191 190 184 192 205 213 235 252 254 249 234 224 231 232 228 231 233 228 225 221 215 212 211 206 204 204 200 199 197 191 193 194 187 188 192 187 183 180
190 195 194 194 197 200 195 193 201 208 222 238 244 248 245 237 238 237 232 234 236 233 232 229 222 218 216 211 210 211 206 203 201 197 197 199 194 192 196 191 186 189
186 196 204 202 197 199 194 187 187 194 213 233 236 235 241 244 243 240 237 237 238 235 234 233 229 224 220 217 216 217 214 209 205 202 201 203 199 197 198 191 185 191
150 171 210 214 201 199 195 189 188 193 208 224 227 223 232 248 250 243 237 240 245 244 240 237 234 228 222 219 218 221 220 214 210 210 207 205 204 200 199 195 190 193
140 166 216 229 215 212 212 211 216 222 226 230 231 228 230 240 245 243 243 249 253 251 246 242 241 240 235 227 220 219 221 216 213 214 211 209 207 202 200 201 200 198
150 166 185 207 227 221 219 227 239 248 245 240 237 235 234 237 240 240 242 247 253 256 254 247 243 242 244 245 236 226 221 217 214 213 212 211 208 203 203 203 199 197
147 159 167 183 215 218 214 221 230 237 238 235 234 233 235 237 238 238 237 234 240 250 252 247 242 236 235 247 254 241 225 215 212 213 212 210 206 202 203 201 197 200
144 157 172 187 206 214 220 223 227 229 227 227 230 234 240 243 242 243 243 240 239 243 246 246 246 243 234 235 244 241 227 214 209 211 211 209 204 200 202 202 201 207
145 149 219 246 240 245 249 245 246 246 238 234 236 241 247 248 245 244 245 241 236 237 243 247 247 246 242 237 238 235 224 210 201 204 208 208 203 200 203 203 201 209
107 232 265 269 260 268 277 273 272 273 267 264 263 261 259 253 248 246 245 244 238 234 239 245 245 245 242 238 235 231 219 205 195 198 203 203 201 200 202 204 204 211
245 275 280 287 281 280 289 289 283 279 277 279 279 278 275 267 260 257 254 253 250 242 237 240 242 241 237 232 228 223 214 201 194 196 196 196 199 200 202 205 207 210
248 256 272 293 301 299 298 294 290 288 290 290 285 281 280 273 265 263 261 258 255 250 243 239 238 236 232 227 221 215 208 199 192 192 191 194 202 204 204 206 207 210
252 241 247 269 283 289 291 290 291 293 293 290 285 280 279 276 269 263 261 259 257 253 249 245 238 232 229 224 215 208 203 196 190 190 190 194 202 201 199 205 214 224
259 252 252 260 270 276 282 284 286 289 290 287 283 278 274 274 273 268 263 260 257 253 249 246 236 226 224 219 208 202 198 191 185 182 182 186 192 194 200 213 226 235
255 258 258 260 264 267 273 277 279 281 281 280 280 278 273 270 271 271 269 266 263 254 244 238 226 214 213 209 201 196 192 186 180 178 178 185 194 200 212 225 233 238
253 257 258 260 263 266 271 275 276 277 276 275 276 276 275 272 270 271 271 267 264 255 243 235 222 206 200 195 190 188 185 179 178 179 181 192 205 214 224 231 241 249
262 260 258 259 261 261 264 266 268 271 272 271 272 272 272 270 267 268 268 262 254 246 239 234 217 196 188 186 184 182 179 173 171 178 186 197 209 218 226 230 243 262
260 257 254 253 254 255 256 258 261 265 267 267 267 268 269 271 273 265 244 207 203 214 217 219 204 182 175 180 182 178 173 165 161 169 178 187 200 216 235 248 265 279